Volver al catálogo

COSMOS 2396

GLONASS

ActivoNavegaciónMEO
NORAD 27618·PAYLOAD·🇷🇺 Russia

Lanzado Dec 25, 2002 desde Baikonur Cosmodrome

Loading…

Próximos Pases (próximas 24 horas)

TLE

ActualizadoSource: Space-Track

Época: Sep 10, 2026, 11:20 UTC

1 27618U 02060B   26253.47236269 -.00000036  00000-0  00000+0 0  9998
2 27618  65.3766 312.7650 0003432 176.4153 182.4255  2.13100114184421

Sigue COSMOS 2396 en tiempo real con AllMySat

Download on the App Store